RH
22 24 27 24 38 29 32 41 44 34 29 28 32 31 27 24 24 31 28 25 24 31 68 75 87 90 93 89 90 85 91 92 95 99 98 100 99 98 100 100 99 100 100 99
40 35 21 22 25 33 41 42 43 37 30 30 32 31 24 26 28 28 25 27 24 56 78 87 97 97 97 98 90 89 90 95 95 94 100 99 93 99 97 100 99 98 99 99
37 38 31 21 22 22 25 35 39 41 31 29 30 30 25 24 30 28 29 27 23 55 78 83 94 97 99 100 95 91 92 93 90 85 88 95 97 96 100 100 100 100 100 92
35 26 34 28 22 21 23 20 22 27 34 41 30 37 32 31 27 27 28 28 28 52 64 75 87 97 99 100 91 90 94 94 86 85 88 94 99 98 98 98 100 100 98 92
17 50 44 42 42 20 22 19 22 23 27 28 26 52 34 32 36 31 24 28 27 51 65 74 83 89 98 99 98 95 92 94 85 87 85 99 99 96 99 99 100 100 100 97
16 23 38 43 36 29 20 22 23 26 34 46 31 40 34 37 33 32 27 26 24 40 66 69 81 91 100 99 100 99 99 99 94 92 88 94 99 100 100 100 100 100 100 100
26 27 23 20 24 22 26 36 49 58 70 50 36 50 33 32 28 31 39 35 28 35 71 75 93 96 98 100 100 100 100 98 100 98 92 96 99 100 99 100 100 98 100 100
38 28 26 23 25 30 31 35 57 53 65 55 42 56 40 32 35 39 39 38 40 41 50 72 88 89 95 98 100 99 100 98 100 99 93 95 98 99 100 100 100 100 100 100
50 40 25 21 18 21 26 41 26 38 54 65 57 49 37 41 42 45 49 46 44 69 76 81 87 89 92 95 99 98 100 100 100 99 95 90 89 100 100 100 99 100 100 100
55 64 37 36 23 22 24 25 35 50 50 57 54 54 49 43 46 47 51 53 53 44 68 77 90 91 90 91 96 99 100 100 100 99 96 95 92 91 98 99 100 100 99 99
68 64 53 41 42 39 29 33 38 35 52 47 55 55 44 42 53 49 50 58 58 61 67 73 80 86 89 92 95 99 100 100 98 98 96 94 98 96 93 99 99 99 100 100
77 73 76 51 54 47 48 31 30 54 56 58 56 52 62 53 59 65 68 67 61 54 60 80 76 89 92 94 93 98 99 98 97 96 94 93 91 93 97 99 99 99 100 99
78 88 85 69 60 54 54 44 50 49 55 58 66 63 63 58 61 62 76 78 64 62 62 80 86 92 92 91 90 92 92 90 95 96 98 97 94 91 94 96 95 95 98 96
67 79 94 95 82 64 55 41 61 60 63 69 58 59 74 68 64 63 68 76 72 62 59 64 83 81 86 89 86 86 88 89 86 93 98 99 99 98 94 90 91 91 89 92
74 93 91 74 50 58 68 50 42 66 74 68 53 43 48 65 61 66 64 75 71 70 58 63 67 77 78 82 88 87 84 85 86 89 90 95 98 96 96 96 92 89 89 86
69 95 95 83 60 50 64 61 44 45 64 74 74 38 49 69 60 61 66 77 80 82 71 65 66 72 80 82 83 83 88 86 87 91 92 89 92 97 94 97 95 92 93 95
67 88 93 79 64 60 53 55 46 50 53 63 79 61 67 66 62 65 66 71 74 75 74 71 72 78 79 82 86 85 87 89 91 94 94 92 89 93 96 92 91 92 96 95
56 70 85 87 70 60 48 42 50 67 60 50 62 67 60 58 60 58 63 74 78 76 76 76 78 82 85 87 86 83 76 91 94 92 95 95 93 93 95 95 94 87 96 97
57 73 87 84 80 57 45 57 49 68 74 64 59 68 63 56 66 77 73 78 83 83 79 80 84 89 92 94 94 94 96 99 94 90 90 92 97 98 96 98 100 98 100 100
58 62 77 91 87 85 48 45 45 55 88 62 68 70 60 59 72 75 84 81 84 80 82 82 85 91 94 96 99 99 98 100 100 99 100 86 96 99 99 99 100 100 100 100
82 91 80 95 93 78 57 48 46 65 75 63 62 59 61 67 67 88 86 83 80 84 87 89 89 91 96 94 93 92 98 100 100 100 100 100 93 100 100 100 100 100 100 100
94 84 94 92 92 84 42 52 49 61 51 55 54 57 66 87 96 91 87 89 87 87 86 88 89 92 97 96 96 98 100 100 99 100 100 100 100 100 100 100 100 100 100 100
98 89 75 72 72 51 62 62 61 56 50 56 57 62 83 95 96 92 94 88 86 89 87 88 90 91 96 98 99 99 100 100 99 100 100 100 100 100 100 100 100 100 99 98
100 97 95 64 53 68 71 70 66 67 65 79 83 88 85 94 92 94 92 89 86 87 86 88 90 94 97 98 100 100 100 100 99 100 100 100 99 100 100 100 99 100 100 99
99 100 97 87 87 80 79 86 75 75 78 81 84 87 90 88 89 88 89 88 90 91 91 94 96 98 98 99 100 100 100 100 100 100 100 100 100 100 100 100 100 100 99 96
94 100 100 95 94 94 91 83 76 78 82 80 81 89 88 89 95 92 94 94 92 96 96 97 99 100 100 99 100 100 99 100 98 99 100 100 100 100 100 100 100 97 94 96
Wind_Speed
4 4 14 17 12 11 9 7 8 0 5 4 8 12 10 9 11 9 10 9 9 7 1 10 19 24 29 30 30 27 25 22 22 19 16 13 12 17 11 18 25 21 32 42
3 16 7 9 10 8 8 14 14 5 5 5 14 24 18 7 8 9 9 9 8 4 4 5 14 21 26 28 30 27 26 24 23 21 18 13 15 10 13 12 27 26 38 41
12 8 13 15 10 13 11 16 5 12 4 7 7 21 17 10 7 7 9 10 6 11 11 11 12 21 22 25 30 28 27 25 23 20 16 13 10 13 11 9 26 35 42 40
12 15 15 7 16 9 16 8 11 9 4 6 7 12 7 6 12 8 12 10 9 11 11 13 15 13 23 24 28 28 28 25 21 20 18 17 12 8 10 15 18 37 42 39
16 8 15 21 22 13 10 9 10 9 6 3 13 5 4 1 6 12 15 10 8 11 15 17 18 20 19 25 28 28 28 25 22 20 18 17 14 16 15 14 23 34 37 42
17 1 6 7 9 17 4 4 2 1 3 8 8 8 6 5 7 5 9 11 10 9 11 13 13 17 18 22 25 28 27 25 23 20 17 17 16 16 17 21 21 25 32 34
7 11 2 1 3 3 5 6 2 2 3 7 9 8 12 7 9 4 15 18 15 9 10 14 16 16 21 24 24 26 24 20 24 17 17 17 18 19 19 25 25 25 28 30
8 8 12 5 16 5 7 8 5 7 4 3 4 6 5 6 2 5 15 20 11 7 10 17 16 16 21 25 25 25 24 22 25 21 19 18 18 19 21 24 26 28 33 32
5 5 4 5 15 16 12 6 15 6 1 1 4 5 7 3 5 7 12 16 21 5 6 5 8 11 22 25 27 27 24 24 25 27 23 20 18 19 21 23 27 27 25 30
4 4 5 3 5 9 13 6 5 3 10 14 4 4 5 4 6 3 8 17 18 17 6 6 7 6 12 20 23 25 26 26 27 26 26 25 23 20 20 23 23 25 27 27
7 1 4 2 4 7 3 6 5 6 5 9 6 5 5 7 3 1 13 13 15 18 17 8 9 10 7 8 14 23 25 25 27 27 26 25 24 25 24 25 26 25 28 32
4 1 3 6 4 1 2 8 13 5 5 3 4 5 8 4 4 8 8 8 14 16 18 17 7 10 12 6 8 11 16 24 27 28 27 26 26 25 27 26 27 28 29 30
3 3 3 5 2 4 4 5 2 4 3 5 6 3 3 9 9 8 4 1 8 14 17 15 10 6 5 10 9 9 13 14 15 24 26 25 27 28 29 30 29 28 28 29
5 4 4 2 9 1 4 4 5 5 4 1 4 6 6 6 6 8 7 7 2 10 12 12 9 9 2 9 14 14 14 14 15 17 18 22 25 27 28 31 31 32 30 31
3 5 7 17 11 4 3 8 5 6 4 4 5 6 3 5 8 9 6 8 5 9 11 11 10 7 8 13 8 14 19 21 20 20 21 19 19 23 25 29 32 31 33 34
3 4 4 15 9 4 4 5 3 2 2 3 10 9 5 6 10 12 13 9 10 10 8 8 9 9 8 12 11 11 11 20 23 25 24 23 19 22 25 24 28 30 32 31
3 4 3 6 10 10 1 2 4 6 6 5 8 5 9 11 12 8 7 10 10 6 4 8 9 11 15 13 15 14 13 11 24 24 23 24 27 23 24 24 24 26 29 31
2 2 3 3 5 4 2 6 6 9 4 7 8 9 6 13 7 6 4 7 8 6 7 9 9 10 13 18 18 19 20 11 21 24 26 28 29 28 24 26 26 27 26 29
4 3 1 1 1 6 1 2 3 3 3 4 7 9 8 14 12 8 7 7 6 6 6 6 11 13 17 14 18 13 7 10 15 22 25 26 28 26 25 23 26 27 26 26
4 1 2 2 1 3 4 2 2 1 4 3 4 3 6 3 3 3 5 6 7 7 7 9 11 9 12 19 18 14 12 11 12 9 6 21 26 27 28 27 25 26 28 28
1 1 6 2 2 6 7 7 6 4 5 5 5 5 5 5 3 7 7 6 8 8 11 12 11 13 17 20 18 13 13 15 15 13 8 10 26 30 30 31 30 27 28 27
3 3 3 3 2 7 3 4 1 3 3 6 3 3 8 9 10 8 6 7 7 8 12 15 13 14 14 16 17 16 15 16 13 10 6 2 10 22 29 33 29 27 28 28
2 5 2 7 6 5 3 3 2 3 3 3 6 4 8 7 6 6 7 8 8 8 10 11 12 13 15 18 16 13 16 13 10 8 10 10 10 13 18 21 25 29 34 32
4 5 4 3 3 1 3 5 2 6 7 7 7 7 8 9 7 8 7 7 7 10 12 14 13 13 14 15 15 13 13 9 10 14 15 16 20 22 22 24 22 20 21 24
4 6 4 3 4 6 5 9 2 12 8 10 10 9 9 7 8 8 7 6 6 8 10 10 10 12 14 15 15 14 10 5 13 17 17 19 20 23 27 27 23 26 21 23
3 4 2 1 5 6 5 10 6 11 7 6 8 9 10 8 8 9 8 7 7 8 9 10 10 11 11 11 11 11 8 6 14 17 16 16 19 22 26 30 35 33 35 34
Wind_Direction
208 182 217 207 213 227 251 249 243 196 240 279 259 274 270 260 284 276 285 290 302 267 259 141 159 172 175 183 185 185 187 191 186 175 185 190 207 211 225 213 205 190 179 179
255 240 214 195 221 230 232 246 250 254 252 273 285 281 284 256 248 247 260 281 281 218 183 150 154 170 177 179 184 183 186 185 191 188 192 194 206 219 228 199 199 194 187 174
217 219 213 195 212 222 230 233 223 250 261 257 287 282 283 266 236 243 243 248 210 197 203 179 188 183 179 180 182 183 184 190 194 196 202 210 208 222 217 212 182 173 166 170
244 234 245 207 229 192 243 185 227 247 223 252 170 282 258 273 273 271 271 260 222 200 203 193 184 188 187 182 185 185 183 190 192 199 207 209 206 192 197 198 169 166 178 170
227 175 205 227 229 196 240 203 206 226 221 277 260 273 285 290 283 282 280 272 242 209 195 192 198 190 184 180 180 183 180 190 195 193 205 206 211 209 184 171 158 154 164 176
228 136 176 207 201 209 138 260 243 224 195 251 223 211 284 200 237 291 283 269 259 213 207 194 179 168 167 178 179 179 178 191 192 190 203 210 205 182 166 153 152 152 155 169
218 235 241 291 22 128 160 120 269 285 172 236 193 220 247 278 271 291 322 316 283 211 186 177 177 173 170 174 178 176 176 187 193 188 198 206 205 191 176 168 160 154 162 172
184 252 203 211 207 164 178 167 178 211 202 217 198 231 241 219 299 272 15 10 343 280 203 192 185 177 173 171 178 177 181 183 188 184 187 197 201 194 181 174 176 170 173 175
177 254 226 159 215 177 218 182 226 262 359 85 228 281 310 279 244 38 28 9 8 20 96 135 180 186 171 175 181 177 182 181 183 186 181 188 193 191 181 178 180 178 177 178
329 279 257 224 127 223 193 172 222 220 218 239 253 240 227 270 267 29 36 14 6 357 19 145 166 185 199 181 176 177 186 186 184 186 187 189 193 196 192 181 176 176 181 177
15 0 289 123 194 179 172 218 207 192 164 215 228 250 232 245 222 132 62 27 10 9 0 304 174 150 174 200 188 183 185 187 187 186 186 190 188 197 195 189 186 185 181 184
6 40 302 231 134 99 235 229 202 189 218 218 166 250 337 77 83 66 44 27 339 356 1 357 138 129 136 163 211 223 207 189 190 191 189 191 195 199 201 191 189 191 186 189
274 38 347 343 352 45 16 332 234 141 122 195 169 237 62 86 71 92 53 75 352 15 8 17 37 83 123 152 188 220 229 232 210 192 191 188 190 196 199 202 198 197 197 198
70 67 47 307 290 75 291 337 344 105 107 89 222 159 221 173 149 85 100 103 21 32 17 18 29 42 38 191 188 196 216 233 226 212 210 200 190 190 198 205 207 207 205 201
84 54 3 307 299 247 130 317 21 55 127 126 335 327 205 158 156 96 118 114 84 46 16 13 7 19 30 25 213 206 209 208 213 219 221 222 216 207 196 201 205 205 206 208
208 94 340 307 324 334 191 200 312 42 149 77 328 281 26 89 97 86 96 113 95 77 344 9 3 16 16 25 30 6 245 217 213 212 215 218 217 211 214 208 207 207 204 205
52 115 134 280 326 311 185 110 224 200 173 163 175 288 100 86 87 84 101 111 99 87 45 359 14 10 353 359 10 359 330 268 213 212 212 212 213 213 211 214 217 213 211 208
294 62 186 262 335 321 24 298 148 94 70 179 155 162 147 117 105 85 73 87 81 73 43 359 3 3 349 358 358 349 357 329 229 217 210 209 206 207 208 208 212 223 218 216
216 126 313 265 188 296 148 340 22 112 31 28 92 111 140 119 91 54 65 65 82 72 44 1 348 350 348 350 346 342 334 323 285 231 216 212 205 200 203 206 203 207 207 207
156 111 161 134 159 236 247 319 269 243 115 245 138 175 180 157 85 137 91 56 48 53 40 11 356 357 355 346 346 347 360 10 8 340 265 220 203 196 194 203 201 198 202 198
133 50 213 143 222 283 262 286 310 140 184 166 188 161 150 114 164 119 93 52 42 26 16 14 24 18 358 350 349 358 3 6 352 341 311 223 199 195 194 191 194 187 183 175
181 187 182 127 143 253 307 327 117 217 198 170 128 104 99 101 104 103 95 68 39 25 17 12 16 21 14 6 2 355 1 355 357 354 16 109 163 175 181 183 174 171 158 134
274 219 234 176 205 234 286 238 277 253 132 80 114 105 106 111 99 104 83 53 35 24 22 19 18 16 19 16 13 358 350 360 13 38 57 79 104 118 144 137 142 142 151 133
260 240 238 130 246 297 6 334 323 71 84 86 64 74 85 97 82 78 71 58 40 25 17 10 13 18 20 16 15 6 360 21 58 60 62 79 93 93 93 102 109 112 121 125
310 310 339 327 22 3 39 10 360 91 83 83 69 66 74 90 80 89 77 66 58 43 33 28 24 21 14 13 16 10 7 40 80 74 70 68 74 85 87 86 91 99 103 118
292 312 338 294 340 310 44 356 79 74 70 79 83 66 47 55 70 70 64 50 51 49 41 40 36 40 28 28 32 26 25 59 91 78 70 77 86 89 93 95 92 100 112 114